Weather History for KSRB - February, 2013

Change the Weather History Date:

Tuesday, February 26, 2013

  Actual Average (KCSV) Record (KCSV)
Temperature  
Mean Temperature 44 °F 42 °F  
Max Temperature 51 °F 52 °F 76 °F (1977)
Min Temperature 37 °F 33 °F 5 °F (1967)
Degree Days  
Heating Degree Days 21    
Month to date heating degree days  
Since 1 July heating degree days  
Cooling Degree Days 0    
Month to date cooling degree days  
Year to date cooling degree days  
Moisture  
Dew Point 42 °F    
Average Humidity 84    
Maximum Humidity 100    
Minimum Humidity 66    
Precipitation  
Precipitation 0.00 in 0.15 in 0.96 in (1972)
Month to date precipitation 4.14  
Year to date precipitation 8.90  
Sea Level Pressure  
Sea Level Pressure 29.54 in    
Wind  
Wind Speed 14 mph (SSW)    
Max Wind Speed 23 mph    
Max Gust Speed 28 mph    
Visibility 10 miles    
Events      
T = Trace of Precipitation, MM = Missing Value Source: NWS Daily Summary

Daily Weather History Graph

Daily Weather History Graph

Search for Another Location

Airport or City:

Trip Planner

Search our weather history database for the weather conditions in past years. The results will help you decide how hot, cold, wet, or windy it might be!

Date:

Astronomy

Feb. 26, 2013 Rise Set
Actual Time 6:15 AM CST 5:34 PM CST
Civil Twilight 5:50 AM CST 6:00 PM CST
Nautical Twilight 5:20 AM CST 6:30 PM CST
Astronomical Twilight 4:50 AM CST 6:59 PM CST
Moon 6:46 PM CST (2/26) 6:21 AM CST (2/26)
Length of Visible Light 12h 10m
Length of Day
11h 18m
Full, 99% of the Moon is Illuminated
Feb 26
Full
Mar 4
Last Quarter
Mar 11
New
Mar 19
First Quarter
Mar 27
Full

Hourly Weather History & Observations

Time (CST) Temp. Windchill Dew Point Humidity Pressure Visibility Wind Dir Wind Speed Gust Speed Precip Events Conditions
12:15 AM 51.8 °F - 44.6 °F 76% 29.63 in 10.0 mi South 11.5 mph - N/A   Mostly Cloudy
12:35 AM 50.0 °F - 46.4 °F 87% 29.61 in 10.0 mi SSE 16.1 mph - N/A   Mostly Cloudy
12:55 AM 48.2 °F - 46.4 °F 93% 29.57 in 9.0 mi SE 19.6 mph - N/A   Overcast
1:15 AM 48.2 °F - 46.4 °F 93% 29.53 in 10.0 mi SE 13.8 mph - N/A   Partly Cloudy
1:35 AM 50.0 °F - 46.4 °F 87% 29.55 in 10.0 mi SSE 17.3 mph - N/A   Clear
1:55 AM 50.0 °F - 46.4 °F 87% 29.57 in 9.0 mi SSE 9.2 mph - N/A   Scattered Clouds
2:15 AM 50.0 °F - 46.4 °F 87% 29.55 in 8.0 mi SSE 15.0 mph 19.6 mph N/A   Overcast
2:35 AM 50.0 °F - 46.4 °F 87% 29.51 in 10.0 mi SSE 12.7 mph - N/A   Mostly Cloudy
2:55 AM 50.0 °F - 48.2 °F 94% 29.48 in 8.0 mi SE 19.6 mph - N/A   Mostly Cloudy
3:15 AM 51.8 °F - 46.4 °F 82% 29.48 in 10.0 mi SSE 20.7 mph - N/A   Overcast
3:35 AM 50.0 °F - 46.4 °F 87% 29.50 in 10.0 mi SSE 13.8 mph - N/A   Mostly Cloudy
3:55 AM 50.0 °F - 46.4 °F 87% 29.48 in 10.0 mi SSE 12.7 mph - N/A   Mostly Cloudy
4:15 AM 50.0 °F - 46.4 °F 87% 29.47 in 10.0 mi SSE 17.3 mph 26.5 mph N/A   Mostly Cloudy
4:35 AM 50.0 °F - 46.4 °F 87% 29.48 in 10.0 mi South 9.2 mph - N/A   Overcast
4:55 AM 51.8 °F - 46.4 °F 82% 29.47 in 10.0 mi SSE 16.1 mph 27.6 mph N/A   Overcast
5:15 AM 51.8 °F - 46.4 °F 82% 29.45 in 10.0 mi SSE 13.8 mph - N/A   Mostly Cloudy
5:35 AM 51.8 °F - 46.4 °F 82% 29.45 in 10.0 mi SSE 17.3 mph - N/A   Mostly Cloudy
5:55 AM 50.0 °F - 46.4 °F 87% 29.44 in 10.0 mi SSE 16.1 mph - N/A   Overcast
6:15 AM 51.8 °F - 46.4 °F 82% 29.45 in 10.0 mi SSE 17.3 mph - N/A   Overcast
6:35 AM 50.0 °F - 46.4 °F 87% 29.46 in 10.0 mi South 16.1 mph - N/A   Overcast
6:55 AM 50.0 °F - 46.4 °F 87% 29.47 in 10.0 mi South 12.7 mph - N/A   Overcast
7:15 AM 48.2 °F - 46.4 °F 93% 29.46 in 10.0 mi SSE 11.5 mph - N/A   Overcast
7:35 AM 48.2 °F - 46.4 °F 93% 29.47 in 10.0 mi South 8.1 mph - N/A   Overcast
7:55 AM 48.2 °F - 46.4 °F 93% 29.47 in 10.0 mi South 11.5 mph - N/A   Overcast
8:15 AM 48.2 °F - 46.4 °F 93% 29.47 in 10.0 mi South 11.5 mph - N/A   Overcast
8:35 AM 50.0 °F - 46.4 °F 87% 29.46 in 10.0 mi South 11.5 mph - N/A   Overcast
8:55 AM 51.8 °F - 46.4 °F 82% 29.45 in 10.0 mi South 12.7 mph - N/A   Overcast
9:15 AM 51.8 °F - 46.4 °F 82% 29.45 in 10.0 mi South 9.2 mph - N/A   Overcast
9:35 AM 51.8 °F - 46.4 °F 82% 29.44 in 10.0 mi South 16.1 mph - N/A   Overcast
9:55 AM 51.8 °F - 46.4 °F 82% 29.44 in 10.0 mi SSW 17.3 mph - N/A   Overcast
10:15 AM 51.8 °F - 46.4 °F 82% 29.45 in 10.0 mi SSW 18.4 mph - N/A   Overcast
10:35 AM 51.8 °F - 46.4 °F 82% 29.46 in 10.0 mi SSW 13.8 mph - N/A   Overcast
10:55 AM 50.0 °F - 46.4 °F 87% 29.46 in 4.0 mi SSW 10.4 mph - N/A   Overcast
11:15 AM 50.0 °F - 46.4 °F 87% 29.45 in 10.0 mi South 12.7 mph - N/A   Overcast
11:35 AM 50.0 °F - 46.4 °F 87% 29.46 in 10.0 mi SSW 11.5 mph - N/A   Overcast
11:55 AM 48.2 °F - 46.4 °F 93% 29.46 in 10.0 mi SSW 12.7 mph - N/A   Overcast
12:15 PM 48.2 °F - 46.4 °F 93% 29.46 in 6.0 mi SSW 12.7 mph - N/A   Overcast
12:35 PM 48.2 °F - 46.4 °F 93% 29.46 in 6.0 mi SSW 18.4 mph - N/A   Overcast
12:55 PM 48.2 °F - 44.6 °F 87% 29.46 in 10.0 mi SW 18.4 mph - N/A   Overcast
1:15 PM 44.6 °F 35.9 °F 41.0 °F 87% 29.48 in 10.0 mi SW 23.0 mph - N/A   Overcast
1:35 PM 46.4 °F 40.1 °F 42.8 °F 87% 29.47 in 10.0 mi SW 15.0 mph - N/A   Mostly Cloudy
1:55 PM 48.2 °F - 39.2 °F 71% 29.48 in 10.0 mi WSW 17.3 mph 25.3 mph N/A   Mostly Cloudy
2:15 PM 46.4 °F 41.9 °F 39.2 °F 76% 29.50 in 10.0 mi SW 9.2 mph - N/A   Overcast
2:35 PM 46.4 °F 39.5 °F 37.4 °F 71% 29.51 in 10.0 mi SW 17.3 mph - N/A   Overcast
2:55 PM 46.4 °F 39.2 °F 35.6 °F 66% 29.53 in 10.0 mi WSW 18.4 mph - N/A   Overcast
3:15 PM 46.4 °F 40.1 °F 35.6 °F 66% 29.54 in 10.0 mi WSW 15.0 mph - N/A   Overcast
3:35 PM 44.6 °F 36.9 °F 33.8 °F 66% 29.54 in 10.0 mi WSW 18.4 mph - N/A   Overcast
3:55 PM 44.6 °F 39.2 °F 33.8 °F 66% 29.55 in 10.0 mi WSW 10.4 mph - N/A   Overcast
4:15 PM 44.6 °F 38.4 °F 33.8 °F 66% 29.56 in 10.0 mi SW 12.7 mph - N/A   Overcast
4:35 PM 44.6 °F 38.1 °F 33.8 °F 66% 29.56 in 10.0 mi SW 13.8 mph - N/A   Overcast
4:55 PM 44.6 °F 38.4 °F 35.6 °F 71% 29.57 in 10.0 mi SW 12.7 mph - N/A   Overcast
5:15 PM 42.8 °F 34.5 °F 35.6 °F 76% 29.58 in 8.0 mi SW 18.4 mph - N/A   Overcast
5:35 PM 42.8 °F 36.2 °F 35.6 °F 76% 29.59 in 10.0 mi SW 12.7 mph - N/A   Overcast
5:55 PM 41.0 °F 34.3 °F 35.6 °F 81% 29.60 in 10.0 mi SW 11.5 mph - N/A   Overcast
6:15 PM 42.8 °F 37.0 °F 35.6 °F 76% 29.61 in 10.0 mi WSW 10.4 mph - N/A   Overcast
6:35 PM 42.8 °F 35.8 °F 35.6 °F 76% 29.62 in 10.0 mi SW 13.8 mph - N/A   Overcast
6:55 PM 41.0 °F 33.1 °F 35.6 °F 81% 29.62 in 10.0 mi SW 15.0 mph - N/A   Mostly Cloudy
7:15 PM 41.0 °F 33.9 °F 35.6 °F 81% 29.64 in 10.0 mi West 12.7 mph - N/A   Overcast
7:35 PM 39.2 °F 30.5 °F 35.6 °F 87% 29.64 in 10.0 mi SW 16.1 mph - N/A   Overcast
7:55 PM 39.2 °F 30.5 °F 37.4 °F 93% 29.65 in 8.0 mi SW 16.1 mph - N/A   Overcast
8:15 PM 37.4 °F 30.8 °F 37.4 °F 100% 29.66 in 6.0 mi WSW 9.2 mph - N/A   Overcast
8:35 PM 37.4 °F 30.8 °F 37.4 °F 100% 29.67 in 7.0 mi WSW 9.2 mph - N/A   Overcast
8:55 PM 37.4 °F 29.8 °F 35.6 °F 93% 29.68 in 10.0 mi WSW 11.5 mph - N/A   Overcast
9:15 PM 37.4 °F 30.8 °F 35.6 °F 93% 29.68 in 10.0 mi SW 9.2 mph - N/A   Mostly Cloudy
9:35 PM 37.4 °F 31.4 °F 35.6 °F 93% 29.69 in 10.0 mi SW 8.1 mph - N/A   Overcast
9:55 PM 37.4 °F 30.3 °F 35.6 °F 93% 29.69 in 10.0 mi WSW 10.4 mph - N/A   Mostly Cloudy
10:15 PM 37.4 °F 30.3 °F 35.6 °F 93% 29.69 in 10.0 mi SW 10.4 mph - N/A   Mostly Cloudy
10:55 PM 37.4 °F 31.4 °F 33.8 °F 87% 29.70 in 10.0 mi WSW 8.1 mph - N/A   Overcast
11:15 PM 37.4 °F 32.8 °F 33.8 °F 87% 29.70 in 10.0 mi WSW 5.8 mph - N/A   Overcast
11:35 PM 37.4 °F 30.8 °F 33.8 °F 87% 29.70 in 10.0 mi SW 9.2 mph - N/A   Overcast
11:55 PM 37.4 °F 30.8 °F 33.8 °F 87% 29.70 in 10.0 mi SW 9.2 mph - N/A   Overcast